Temperature
14 14 14 14 14 13 13 13 14 14 14 13 12 12 12 12 12 12 12 12 12 12 12 12 12 12 12 12 12 12 11 12 11 11 11 11 11 11
14 14 14 14 14 14 13 13 13 13 13 13 12 12 12 12 12 12 12 12 12 12 12 12 12 12 11 11 11 11 11 11 11 11 11 11 11 10
14 14 14 14 14 14 13 13 13 13 13 12 12 12 12 12 12 12 12 11 11 12 12 12 12 11 11 11 11 11 11 11 11 11 10 10 10 10
14 14 14 14 14 13 13 13 13 13 12 12 12 12 12 11 12 12 11 11 11 12 11 11 11 11 11 11 11 11 10 10 10 10 10 10 10 10
14 14 13 13 13 13 13 13 13 13 12 12 12 12 11 11 11 11 11 11 11 11 11 11 11 11 10 10 10 10 10 10 10 10 9 9 9 9
14 13 13 13 13 13 13 13 13 12 12 12 12 11 11 11 11 11 11 11 10 10 10 10 10 10 10 10 10 10 9 9 9 9 9 9 9 9
13 13 13 13 13 13 13 12 12 12 12 12 11 11 11 11 11 11 10 10 10 10 10 9 9 9 9 9 9 9 9 9 8 8 8 8 8 8
13 13 13 13 13 13 13 13 12 12 11 11 11 11 11 10 10 10 10 10 9 10 9 9 9 8 8 8 8 8 8 8 8 8 8 8 7 7
13 13 13 13 13 12 12 12 12 12 12 11 11 10 10 10 10 10 9 9 9 9 9 8 8 8 8 8 8 8 8 7 7 7 7 7 7 7
13 13 12 12 12 12 12 11 12 11 11 11 10 10 10 10 10 10 9 9 8 9 9 8 8 7 7 7 7 7 7 7 6 6 6 6 6 6
13 13 12 12 12 12 11 11 11 11 11 11 11 10 10 10 10 9 9 9 8 8 8 7 7 7 7 7 7 7 6 6 6 6 6 6 6 6
12 12 12 12 12 11 11 11 10 10 10 10 10 10 10 10 9 9 9 8 7 7 7 7 6 6 6 6 6 6 5 5 5 5 5 5 5 5
12 12 12 12 11 11 11 10 10 10 10 9 9 9 9 9 9 8 8 7 7 6 6 6 5 5 5 5 5 5 5 4 4 4 4 4 4 4
12 11 11 11 11 11 10 10 10 10 9 9 9 9 8 8 8 8 7 7 7 6 6 5 5 5 4 4 4 4 4 4 4 4 3 3 3 3
11 11 11 11 10 10 10 10 10 9 9 9 8 8 8 7 7 7 7 6 6 6 5 5 4 4 4 4 3 3 3 3 3 3 3 3 3 3
11 11 10 10 10 10 10 9 9 9 8 8 8 7 7 7 7 6 6 6 5 5 5 4 4 4 4 3 3 3 3 2 2 2 2 2 2 2
11 10 10 10 9 9 9 9 8 8 8 8 7 7 7 6 6 6 5 5 5 4 4 4 4 4 3 3 3 3 2 2 2 2 2 2 2 2
10 10 9 9 9 9 8 8 8 8 8 7 7 6 6 6 6 5 5 5 4 4 4 3 3 3 3 3 3 2 2 2 2 1 1 1 1 1
10 9 9 9 9 8 8 8 8 7 7 7 6 6 6 5 5 5 4 4 4 3 3 3 3 2 2 2 2 2 2 1 1 1 1 0 1 1
9 9 9 9 8 8 8 8 7 7 7 6 6 5 5 5 5 4 4 4 3 3 3 3 2 2 1 1 1 1 1 1 1 0 0 0 0 0
9 9 9 8 8 8 7 7 7 7 6 6 5 5 5 4 4 4 4 3 3 2 2 2 2 1 1 1 1 0 0 0 0 -0 -0 -0 -0 -0
9 8 8 8 8 7 7 7 6 6 6 6 5 5 4 4 4 4 3 3 2 2 2 2 1 1 0 0 0 0 -0 -0 -0 -0 -0 -1 -1 -1
8 8 8 8 7 7 7 6 6 6 6 5 5 5 4 4 4 3 3 2 2 2 1 1 1 1 0 -0 -0 -0 -0 -1 -1 -1 -1 -1 -1 -1
Wind_Speed
1 1 1 1 1 1 1 2 2 1 1 2 2 3 3 3 4 3 4 6 6 6 5 5 5 5 6 7 7 7 7 7 7 8 8 8 9 9
1 1 1 1 1 0 1 1 2 2 1 2 2 2 3 2 3 3 3 4 6 5 5 5 5 4 5 5 6 6 6 7 7 7 8 8 8 9
1 1 1 1 0 0 0 0 1 1 0 1 1 2 2 3 3 3 3 3 4 6 5 5 5 5 5 5 5 5 6 6 6 7 7 8 8 8
0 1 1 1 0 0 0 0 0 1 1 1 1 1 2 3 3 3 3 3 3 5 5 5 6 6 6 6 6 7 7 7 7 7 7 8 8 8
0 1 1 1 0 0 0 0 0 0 1 1 1 1 2 2 2 2 2 3 2 3 3 4 5 6 6 7 7 7 7 7 8 8 8 8 9 9
0 0 1 1 1 1 0 0 0 0 0 1 1 1 1 2 2 2 2 2 2 2 3 2 3 3 5 6 7 8 8 8 8 8 8 9 9 10
1 1 2 3 5 3 2 1 0 1 1 1 1 1 1 2 2 2 3 2 1 2 2 1 1 2 3 4 6 7 8 8 8 9 9 9 10 10
2 1 2 3 3 3 4 5 4 1 0 0 1 1 2 2 3 3 3 3 2 2 3 2 2 2 3 4 6 6 6 7 8 8 9 9 10 11
2 1 1 1 2 2 4 3 2 3 3 2 1 2 3 3 3 3 3 3 3 3 3 2 1 2 2 4 5 5 5 6 7 8 9 10 10 11
2 2 2 2 2 2 2 2 2 1 0 1 1 2 4 4 3 3 4 3 2 2 3 3 2 3 2 1 3 4 4 5 6 7 8 10 10 11
2 2 2 2 3 2 2 2 1 1 3 2 4 4 6 6 5 2 2 2 3 1 2 3 3 3 2 1 1 2 2 3 5 6 8 9 11 11
2 2 2 1 3 3 3 2 2 1 1 2 1 1 1 2 2 2 2 3 3 2 3 3 3 3 2 1 3 3 3 3 3 4 7 9 11 10
3 2 2 5 4 3 2 2 1 1 1 0 0 1 1 1 2 2 3 3 3 2 3 3 3 4 4 4 3 3 4 5 5 5 6 7 9 8
2 2 3 6 5 3 2 2 2 1 1 0 0 1 1 1 1 2 2 3 3 3 4 4 3 4 5 5 4 3 4 5 6 7 8 7 7 6
2 3 5 6 5 3 3 2 2 1 1 1 1 1 1 1 1 1 1 2 2 3 4 4 4 4 5 5 5 5 5 5 5 7 7 8 8 7
4 4 6 5 3 2 3 2 1 1 1 2 2 1 1 0 0 1 1 1 2 2 3 4 4 4 4 5 5 5 5 5 6 6 7 7 8 7
5 4 4 4 3 3 2 2 2 1 1 2 2 2 1 1 1 1 1 2 2 2 3 2 3 3 4 4 4 4 5 6 7 7 7 8 7 7
5 4 4 4 4 3 3 3 2 2 2 2 2 2 2 2 1 1 1 2 2 3 3 3 3 3 3 3 3 5 6 6 7 7 7 8 8 7
5 4 4 4 4 4 3 3 3 3 3 3 3 3 2 2 2 2 2 2 2 3 3 3 3 4 5 5 3 3 6 7 7 7 7 7 8 8
5 5 5 4 4 4 4 3 3 3 3 3 3 3 3 3 3 3 2 2 3 3 3 3 3 4 5 6 6 6 5 6 7 7 7 7 8 9
5 5 4 4 4 4 3 3 3 3 3 3 3 3 3 3 3 3 3 3 3 3 4 4 4 5 5 5 5 5 5 5 6 7 8 8 8 8
4 5 4 4 4 4 3 3 4 4 4 4 3 3 3 3 3 3 3 3 3 3 4 4 3 4 4 5 6 6 7 6 6 7 8 7 7 7
4 4 4 4 3 3 3 4 4 3 3 3 3 3 3 3 3 3 3 3 3 3 3 3 3 3 4 5 6 6 8 8 7 7 6 6 9 12
Wind_Direction
64 70 50 43 357 349 311 304 317 329 56 65 49 47 31 32 14 25 40 55 40 32 30 34 33 32 31 29 26 22 20 20 18 16 14 10 5 3
64 37 29 30 45 357 313 316 320 323 352 47 42 40 36 27 23 18 37 72 47 31 27 26 22 21 24 24 21 19 20 19 14 10 7 2 358 354
141 95 56 28 106 105 189 298 323 322 329 8 42 30 29 20 24 12 7 14 47 45 38 35 32 32 28 26 25 24 26 22 16 11 6 1 356 350
42 68 56 90 54 17 233 251 311 300 281 305 5 14 10 11 5 6 8 12 25 56 51 47 43 43 40 38 36 34 32 25 17 11 3 357 350 346
76 14 355 5 38 98 241 279 287 304 289 258 320 358 349 358 352 357 11 7 14 60 71 66 58 51 44 43 39 35 30 24 17 12 6 0 353 347
142 61 6 349 344 331 306 280 202 170 221 242 275 325 345 350 333 334 339 352 350 13 33 54 83 77 60 49 40 32 27 22 18 14 9 3 358 353
159 118 81 52 34 15 356 339 211 209 213 251 282 320 340 345 331 318 318 318 331 358 338 351 17 23 45 58 40 29 29 27 23 18 11 2 355 350
189 165 140 124 103 90 61 42 25 358 297 267 305 316 330 333 328 311 319 318 315 2 322 325 359 11 15 35 38 31 27 22 16 11 5 0 355 351
215 197 166 145 148 145 134 137 88 35 360 329 331 330 327 336 323 313 311 306 317 358 322 307 349 348 3 37 48 31 20 12 6 1 358 354 349 344
205 203 183 170 158 167 152 135 122 107 83 283 322 341 355 354 327 310 309 301 302 19 341 314 329 322 322 4 64 27 9 3 360 357 353 350 345 336
181 187 196 180 122 167 180 174 167 146 99 77 37 42 45 31 4 338 337 316 309 329 358 317 322 316 297 278 29 7 348 352 346 343 343 342 334 323
168 163 125 161 136 173 197 203 224 246 184 148 132 122 37 58 22 345 333 311 316 325 13 324 325 325 301 307 336 329 326 327 314 324 336 340 337 329
183 184 159 146 155 175 226 239 273 297 206 187 69 40 26 27 26 1 351 325 320 325 350 319 314 314 305 307 311 327 334 334 330 329 329 335 334 332
191 186 139 133 145 157 182 128 115 184 205 209 269 313 334 356 9 11 15 7 353 338 338 322 310 311 304 302 308 319 326 331 331 332 332 328 318 307
171 108 110 133 149 152 145 147 171 199 209 232 258 283 305 332 353 354 359 15 4 358 342 324 309 306 299 299 304 312 315 325 330 326 326 327 327 327
187 146 139 144 166 139 143 166 195 220 246 252 269 285 292 294 295 298 299 306 324 337 349 337 322 307 299 304 303 308 316 316 323 323 322 320 321 323
180 180 179 176 180 180 178 181 195 203 223 252 259 260 256 256 274 294 293 298 302 315 331 340 339 333 320 306 299 307 312 314 315 319 318 317 317 320
171 187 192 194 198 202 203 206 212 224 233 237 242 248 248 249 260 284 288 293 300 306 313 317 313 307 310 322 310 305 310 311 313 314 311 309 311 319
183 200 203 204 206 210 215 220 227 228 231 238 243 245 245 242 243 254 262 277 288 297 302 307 309 307 304 307 306 301 309 310 311 311 310 307 308 316
206 212 216 214 214 217 221 225 229 227 226 234 240 242 239 239 242 248 257 275 287 293 297 304 306 303 296 300 302 307 300 307 310 309 310 307 306 305
208 213 219 219 219 222 226 229 231 231 231 232 231 235 238 240 246 250 260 267 275 283 291 298 303 295 293 296 297 303 311 299 300 305 313 311 311 309
214 216 219 221 221 223 226 229 232 231 228 227 228 230 233 236 241 247 256 264 270 277 288 302 314 307 300 296 298 306 316 320 301 283 280 283 310 313
220 218 218 219 221 222 225 228 230 233 229 226 229 230 230 230 234 240 251 262 272 279 287 297 306 306 305 303 305 309 314 319 319 315 309 290 279 282
Height
1566 1566 1565 1565 1564 1564 1564 1564 1565 1564 1564 1562 1561 1560 1559 1558 1556 1556 1554 1552 1550 1549 1547 1545 1544 1542 1541 1539 1538 1536 1535 1534 1533 1531 1530 1529 1527 1526
1565 1565 1565 1565 1564 1563 1563 1563 1563 1564 1563 1562 1561 1560 1558 1558 1556 1555 1554 1552 1550 1549 1547 1546 1544 1542 1541 1539 1538 1536 1535 1533 1532 1530 1529 1528 1526 1525
1566 1565 1565 1564 1563 1563 1563 1562 1562 1562 1562 1562 1561 1560 1558 1557 1556 1555 1554 1552 1550 1548 1547 1545 1543 1542 1540 1539 1537 1535 1534 1532 1531 1529 1528 1526 1525 1524
1565 1565 1565 1564 1563 1563 1562 1562 1561 1561 1561 1561 1560 1559 1558 1557 1555 1554 1553 1552 1550 1548 1546 1544 1543 1541 1540 1538 1536 1535 1533 1531 1530 1528 1526 1525 1523 1521
1565 1564 1564 1564 1563 1562 1561 1561 1561 1560 1560 1560 1559 1558 1557 1556 1554 1553 1552 1550 1549 1547 1545 1544 1542 1540 1539 1537 1535 1534 1532 1530 1528 1526 1524 1523 1521 1519
1564 1563 1563 1563 1562 1562 1561 1560 1560 1559 1559 1558 1558 1557 1556 1554 1553 1552 1551 1549 1548 1546 1544 1543 1541 1539 1537 1535 1534 1532 1530 1528 1526 1524 1522 1520 1519 1516
1562 1562 1561 1561 1560 1560 1560 1559 1558 1558 1558 1557 1557 1556 1555 1553 1552 1551 1550 1549 1547 1545 1543 1542 1540 1538 1536 1534 1532 1530 1528 1526 1524 1522 1520 1518 1516 1513
1561 1561 1560 1559 1559 1558 1558 1557 1557 1556 1556 1556 1555 1555 1553 1552 1551 1549 1549 1547 1546 1544 1542 1540 1539 1536 1535 1532 1530 1528 1526 1524 1522 1519 1517 1515 1513 1510
1559 1559 1558 1558 1557 1557 1556 1556 1555 1555 1554 1554 1554 1553 1552 1550 1549 1548 1546 1545 1544 1541 1540 1538 1536 1535 1532 1530 1528 1526 1524 1521 1519 1516 1514 1512 1509 1507
1557 1557 1556 1556 1555 1555 1555 1554 1554 1553 1552 1552 1551 1550 1549 1548 1547 1546 1544 1543 1542 1539 1538 1536 1534 1532 1530 1528 1525 1523 1521 1519 1516 1514 1511 1509 1506 1504
1554 1554 1554 1554 1553 1553 1553 1553 1552 1551 1550 1549 1548 1548 1546 1545 1544 1543 1542 1541 1540 1538 1536 1534 1532 1530 1527 1526 1524 1521 1519 1517 1514 1512 1509 1506 1503 1501
1552 1552 1552 1552 1551 1551 1551 1551 1550 1549 1549 1547 1546 1545 1544 1543 1542 1541 1540 1539 1538 1537 1534 1532 1530 1528 1526 1524 1522 1519 1517 1514 1512 1509 1506 1504 1501 1498
1550 1550 1549 1549 1549 1549 1549 1549 1548 1547 1546 1545 1544 1543 1542 1541 1540 1538 1537 1536 1535 1534 1532 1530 1528 1527 1525 1523 1520 1517 1515 1512 1510 1507 1504 1501 1498 1495
1547 1547 1547 1547 1547 1547 1546 1546 1545 1545 1544 1543 1542 1541 1540 1539 1537 1536 1535 1534 1533 1532 1529 1528 1526 1524 1522 1520 1518 1515 1513 1510 1507 1505 1502 1498 1496 1493
1544 1545 1545 1545 1544 1544 1544 1543 1543 1542 1541 1541 1540 1539 1538 1536 1535 1534 1533 1531 1530 1528 1527 1525 1524 1522 1520 1518 1516 1513 1511 1508 1505 1502 1499 1496 1493 1490
1541 1541 1542 1542 1542 1541 1541 1540 1540 1539 1538 1538 1537 1536 1535 1534 1533 1531 1530 1529 1527 1526 1524 1522 1521 1519 1517 1515 1513 1510 1508 1506 1502 1499 1496 1493 1491 1488
1538 1538 1538 1538 1538 1538 1538 1537 1537 1536 1535 1535 1534 1533 1532 1531 1530 1529 1527 1526 1525 1523 1521 1519 1518 1516 1514 1512 1510 1507 1505 1503 1500 1497 1494 1491 1488 1485
1535 1535 1535 1535 1535 1535 1535 1534 1534 1533 1532 1532 1531 1530 1529 1528 1527 1526 1525 1523 1522 1520 1519 1517 1515 1513 1511 1509 1508 1505 1503 1500 1497 1494 1491 1488 1485 1482
1531 1531 1531 1531 1531 1531 1531 1531 1530 1529 1529 1528 1527 1527 1526 1525 1524 1522 1521 1520 1519 1517 1516 1514 1512 1510 1509 1506 1504 1502 1500 1497 1494 1491 1488 1485 1482 1479
1526 1527 1527 1527 1527 1527 1527 1527 1526 1526 1525 1524 1523 1523 1522 1521 1520 1519 1518 1517 1516 1514 1513 1511 1510 1508 1506 1504 1501 1498 1496 1494 1491 1488 1485 1482 1479 1475
1522 1523 1523 1523 1523 1523 1523 1522 1522 1522 1521 1520 1519 1519 1518 1517 1516 1515 1514 1513 1512 1511 1509 1508 1506 1505 1503 1501 1498 1495 1493 1491 1488 1485 1482 1478 1475 1471
1518 1518 1518 1518 1519 1518 1518 1518 1518 1517 1517 1516 1515 1515 1514 1513 1512 1512 1511 1510 1509 1508 1506 1505 1503 1501 1499 1497 1495 1492 1489 1487 1485 1482 1479 1476 1473 1468
1514 1514 1514 1514 1514 1514 1514 1513 1513 1513 1512 1511 1511 1511 1510 1509 1508 1508 1507 1506 1505 1504 1503 1501 1499 1498 1496 1494 1492 1489 1486 1483 1481 1478 1476 1473 1470 1467